130  
ASUS46 KLOX 251403  
RWRCA  
 
SOUTHERN CALIFORNIA WEATHER ROUNDUP  
NATIONAL WEATHER SERVICE OXNARD CALIFORNIA  
700 AM PDT MON OCT 25 2021  
 
NOTE: "FAIR" INDICATES FEW OR NO CLOUDS BELOW 12,000 FEET WITH NO  
SIGNIFICANT WEATHER AND/OR S TO VISIBILITY
.  
 
- STATIONS PRECEEDED BY AN ASTERISK (*) ARE NOT NWS OR FAA  
STATIONS AND ARE NOT SUBJECT TO NWS AND FAA QUALITY CONTROL.
 
 
CAZ041-042-087-251500-  
LA AND ORANGE COUNTY COASTAL AREAS  
 
 
CITY SKY/WX TMP DP RH WIND PRES REMARKS
 
L.A. DOWNTOWN LGT RAIN 60 57 89 VRB5 29.91S FOG  
L.A. AIRPORT CLOUDY 61 58 90 S8 29.91S FOG  
LONG BEACH CLOUDY 60 56 86 SE6 29.91F  
 
CITY SKY/WX TMP DP RH WIND PRES REMARKS
 
AVALON N/A 59 N/A N/A MISG N/A  
FULLERTON CLOUDY 62 56 80 E5 29.91S  
HAWTHORNE LGT RAIN 61 58 90 SE3 29.91F FOG  
*LEO CARRILLO N/A 59 57 94 E3 N/A  
*LOS ALAMITOS CLOUDY 59 59 100 E3 29.91S  
SANTA ANA MOCLDY 62 55 77 SE5 29.92S  
STA MONICA APT CLOUDY 59 59 100 SE3 29.91F  
*UCLA N/A 59 55 88 SE5 29.87F  
 

 
 
CAZ547-548-048-251500-  
LA COUNTY VALLEYS AND INLAND EMPIRE  
 
 
CITY SKY/WX TMP DP RH WIND PRES REMARKS
 
BURBANK LGT RAIN 57 55 93 SE9 29.89F FOG  
VAN NUYS LGT RAIN 59 56 89 S9 29.89F VSB 1  
 
CITY SKY/WX TMP DP RH WIND PRES REMARKS
 
CORONA AIRPORT CLOUDY 56 54 93 CALM 29.94R  
*CHATSWORTH N/A 58 54 87 CALM 29.90F  
CHINO CLOUDY 58 53 84 SW3 29.94R  
*CLAREMONT N/A 53 53 100 CALM N/A  
*NORTHRIDGE N/A 57 54 88 SE3G9 N/A  
ONTARIO CLOUDY 60 52 74 NW5 29.92S  
*PASADENA N/A 59 57 94 CALM N/A  
RIVERSIDE CLOUDY 57 53 86 W3 29.93R FOG  
SAN BERNARDINO NOT AVBL  
*SAN RAFAEL HI N/A 53 53 100 E9 N/A  
*SAUGUS N/A 54 54 99 S14G25 N/A  
*WHITEMAN AP NOT AVBL  
*WHITTIER HILL N/A 56 56 100 SE5 N/A  
*WOODLAND HILL N/A 55 52 88 MISG N/A  
 

 
 
CAZ054-055-251500-  
LA AND SAN BERNARDINO COUNTY MOUNTAINS  
 
 
CITY SKY/WX TMP DP RH WIND PRES REMARKS
 
*ACTON N/A 57 48 72 S10G23 N/A  
*BIG BEAR AIRP CLOUDY 45 37 76 W9G16 29.98F  
*BIG PINES N/A 41 41 99 NE5G25 N/A  
SANDBERG LGT RAIN 48 46 93 S23G35 29.86S VSB 1/4  
 

 
 
CAZ028-029-059-060-099-251500-  
ANTELOPE VALLEY AND SURROUNDING AREAS  
 
 
CITY SKY/WX TMP DP RH WIND PRES REMARKS
 
LANCASTER CLOUDY 55 49 80 SW17 29.86S  
PALMDALE CLOUDY 56 48 74 W9 29.85F  
*POPPY PARK N/A 52 50 92 SW3G21 N/A  
 
CITY SKY/WX TMP DP RH WIND PRES REMARKS
 
29 PALMS CLEAR 61 42 49 S12 29.89R  
BARSTOW/DAGGET CLEAR 58 49 72 SW9 29.81F  
BISHOP RAIN 55 48 77 S16 29.56S  
CHINA LAKE MOCLDY 59 48 67 SW15G25 29.74R  
EDWARDS AFB MOCLDY 55 49 81 SW23 29.80S  
NEEDLES CLEAR 67 49 52 W7 29.81S  
VICTORVILLE CLEAR 61 46 59 SE17G25 29.87R  
 

 
 
CAZ039-040-251500-  
VENTURA AND SANTA BARBARA COUNTY COAST  
 
 
CITY SKY/WX TMP DP RH WIND PRES REMARKS
 
CAMARILLO LGT RAIN 62 57 83 CALM 29.88S  
NWS OXNARD N/A 59 51 73 CALM 29.86S  
OXNARD AIRPORT CLOUDY 60 58 92 SE8 29.88S  
*POINT MUGU LGT RAIN 60 56 86 SE12 29.88F FOG  
SBA APT/GOLETA CLOUDY 60 58 92 E14 29.84F FOG  
*SANTA BARBARA N/A 60 56 87 CALM 29.92F  
*VENTURA N/A 57 57 100 MISG N/A  
 

 
 
CAZ044-045-251500-  
VENTURA COUNTY VALLEYS  
 
 
CITY SKY/WX TMP DP RH WIND PRES REMARKS
 
*SIMI VALLEY N/A 56 55 94 E1 29.85F  
*N 1000 OAKS N/A 56 54 93 SW2 29.89S  
*TO CIVIC ARTS N/A 55 55 100 MISG N/A  
*WESTLAKE VILL N/A 56 52 87 S2 29.86F  
*OJAI N/A 0 0 100 CALM N/A  
*FILLMORE N/A 57 55 92 CALM 29.92F  
 

 
 
CAZ053-251500-  
VENTURA COUNTY MOUNTAINS  
 
 
CITY SKY/WX TMP DP RH WIND PRES REMARKS
 
*LOCKWOOD VLY N/A 45 43 93 MISG N/A  
*ROSE VALLEY N/A 48 46 93 MISG N/A  
 

 
 
CAZ034-035-036-251500-  
CENTRAL COAST AND SANTA YNEZ VALLEY  
 
 
CITY SKY/WX TMP DP RH WIND PRES REMARKS
 
SAN LUIS OBISP RAIN 59 57 93 SW10 29.76R FOG  
SANTA MARIA HVY RAIN 60 57 89 S20G28 29.75R FOG  
 
CITY SKY/WX TMP DP RH WIND PRES REMARKS
 
*CAL POLY SLO N/A 59 59 100 S10 N/A  
*LOMPOC RAIN 61 59 93 S14G23 29.76F FOG  
*SANTA YNEZ DRIZZLE 57 55 94 SE10 29.82F  
 

 
 
CAZ037-038-051-251500-  
SAN LUIS OBISPO COUNTY INTERIOR AND CUYAMA VALLEY  
 
 
CITY SKY/WX TMP DP RH WIND PRES REMARKS
 
*CUYAMA N/A 62 48 61 SW22 29.57F  
PASO ROBLES HVY RAIN 57 55 93 W3 29.73R FOG  
 

 
 
CAZ032-033-061-251500-  
SOUTHERN DESERTS  
 
 
CITY SKY/WX TMP DP RH WIND PRES REMARKS
 
BLYTHE NOT AVBL  
IMPERIAL FOG 66 66 100 SE8 29.81F VSB 3/4  
PALM SPRINGS CLEAR 63 51 65 E3 29.83S  
THERMAL CLEAR 55 50 83 NW7 29.81R  
 

 
 
ELSEWHERE ACROSS THE WESTERN UNITED STATES AND MEXICO  
 
 
CITY SKY/WX TMP DP RH WIND PRES REMARKS
 
DENVER, CO MOCLDY 41 27 57 W8 29.93S  
GRAND CANYON, CLEAR 45 34 65 S7 30.09R  
HONOLULU, HI PTCLDY 76 66 71 E9 30.06F  
KAHULUI, MAUI CLEAR 74 67 78 NE12 30.06S  
LAKE TAHOE, CA NOT AVBL  
LAS VEGAS, NV PTCLDY 64 39 39 S8 29.77F  
MAMMOTH LAKES, LGT RAIN 41 41 100 NE8 29.66F  
MEXICO CITY, M CLOUDY 57 52 82 E5 30.37R  
PHOENIX, AZ PTCLDY 63 42 46 E7 29.89R  
PORTLAND, OR LGT RAIN 57 39 51 S16G26 29.42R  
RENO, NV RAIN 35 33 92 W5 29.62S WCI 31  
SALT LAKE CITY MOCLDY 60 39 45 S18G32 29.66F  
SAN DIEGO, CA MOCLDY 65 56 72 SE8 29.94S  
SAN FRANCISCO, PTCLDY 58 53 84 W23 29.67R  
SAN JOSE, CA CLOUDY 57 54 89 S7 29.70R  
SEATTLE, WA CLOUDY 54 38 54 S20G33 29.31R  
TIJUANA, MEX CLOUDY 61 57 88 E9 29.96S HAZE  
 

 
 
STATION/POSITION TIME TEMP WIND PRES VSBY WAVE
 
AIR SEA DIR/SP/G HT/PER  
(UTC) (F) (DEG/KT/KT) (MB) (MI) (FT/S)  
WEST SANTA BARBA 1340 60 58 160/ 17/ 23 1008.5F  
EAST SANTA BARBA 1340 61 61 120/ 14/ 17 1010.9F  
SANTA MONICA BAY 1340 61 64 170/ 10/ 12 1012.0F  
SAN CLEMENTE BAS 1340 61 65 210/ 2/ 4 1013.0R  
 
CLICK HERE TO GO TO PREVIOUS BULLETINS.

The Nexlab CA Page Main Text Page